![]() |
EMODnet Physics ERDDAP
Easier access to scientific data |
log in|
Brought to you by EMODnet Physics |
| Dataset Title: | NDBC - Collection of dew point temperature (DEWT) TimeSeries - IN SITU MultiPointTimeSeriesObservation
|
| Institution: | NDBC (Dataset ID: TS_DEWT_NDBC) |
| Information: | Summary
| License
| FGDC
| ISO 19115
| Metadata
| Background
| Subset
| Data Access Form
| Make a graph
|
| Name | Last modified | Size | Description | |
|---|---|---|---|---|
| Parent Directory | - | - | ||
| PXSC1_TS_DEWT_012015.nc | 11-Dec-2024 12:10 | 429623 | ||
| PXSC1_TS_DEWT_012016.nc | 11-Dec-2024 12:15 | 429835 | ||
| PXSC1_TS_DEWT_012017.nc | 11-Dec-2024 12:20 | 429835 | ||
| PXSC1_TS_DEWT_012018.nc | 11-Dec-2024 12:25 | 429837 | ||
| PXSC1_TS_DEWT_012019.nc | 11-Dec-2024 12:30 | 429834 | ||
| PXSC1_TS_DEWT_012020.nc | 11-Dec-2024 12:36 | 429836 | ||
| PXSC1_TS_DEWT_012021.nc | 11-Dec-2024 12:43 | 429839 | ||
| PXSC1_TS_DEWT_012022.nc | 11-Dec-2024 12:49 | 429831 | ||
| PXSC1_TS_DEWT_012025.nc | 19-Feb-2025 05:51 | 429838 | ||
| PXSC1_TS_DEWT_012026.nc | 02-Feb-2026 16:19 | 423392 | ||
| PXSC1_TS_DEWT_022015.nc | 11-Dec-2024 12:11 | 429831 | ||
| PXSC1_TS_DEWT_022016.nc | 11-Dec-2024 12:15 | 429820 | ||
| PXSC1_TS_DEWT_022017.nc | 11-Dec-2024 12:20 | 429835 | ||
| PXSC1_TS_DEWT_022018.nc | 11-Dec-2024 12:25 | 429834 | ||
| PXSC1_TS_DEWT_022019.nc | 11-Dec-2024 12:30 | 429839 | ||
| PXSC1_TS_DEWT_022020.nc | 11-Dec-2024 12:36 | 418795 | ||
| PXSC1_TS_DEWT_022021.nc | 11-Dec-2024 12:43 | 429836 | ||
| PXSC1_TS_DEWT_022022.nc | 11-Dec-2024 12:50 | 429837 | ||
| PXSC1_TS_DEWT_022023.nc | 11-Dec-2024 12:54 | 429838 | ||
| PXSC1_TS_DEWT_022025.nc | 01-Mar-2025 05:43 | 429820 | ||
| PXSC1_TS_DEWT_022026.nc | 01-Mar-2026 17:31 | 429833 | ||
| PXSC1_TS_DEWT_032015.nc | 11-Dec-2024 12:11 | 429272 | ||
| PXSC1_TS_DEWT_032016.nc | 11-Dec-2024 12:15 | 429276 | ||
| PXSC1_TS_DEWT_032017.nc | 11-Dec-2024 12:21 | 429266 | ||
| PXSC1_TS_DEWT_032018.nc | 11-Dec-2024 12:26 | 428777 | ||
| PXSC1_TS_DEWT_032019.nc | 11-Dec-2024 12:31 | 426034 | ||
| PXSC1_TS_DEWT_032020.nc | 11-Dec-2024 12:37 | 429283 | ||
| PXSC1_TS_DEWT_032021.nc | 11-Dec-2024 12:44 | 425475 | ||
| PXSC1_TS_DEWT_032022.nc | 11-Dec-2024 12:50 | 427611 | ||
| PXSC1_TS_DEWT_032023.nc | 11-Dec-2024 12:55 | 429283 | ||
| PXSC1_TS_DEWT_032025.nc | 02-Apr-2025 03:44 | 429294 | ||
| PXSC1_TS_DEWT_032026.nc | 25-Mar-2026 06:15 | 429272 | ||
| PXSC1_TS_DEWT_042014.nc | 11-Dec-2024 12:07 | 429288 | ||
| PXSC1_TS_DEWT_042015.nc | 11-Dec-2024 12:12 | 429289 | ||
| PXSC1_TS_DEWT_042016.nc | 11-Dec-2024 12:16 | 429294 | ||
| PXSC1_TS_DEWT_042017.nc | 11-Dec-2024 12:21 | 429283 | ||
| PXSC1_TS_DEWT_042018.nc | 11-Dec-2024 12:26 | 429295 | ||
| PXSC1_TS_DEWT_042019.nc | 11-Dec-2024 12:31 | 429293 | ||
| PXSC1_TS_DEWT_042020.nc | 11-Dec-2024 12:38 | 429285 | ||
| PXSC1_TS_DEWT_042021.nc | 11-Dec-2024 12:45 | 429289 | ||
| PXSC1_TS_DEWT_042022.nc | 11-Dec-2024 12:50 | 429490 | ||
| PXSC1_TS_DEWT_042025.nc | 01-May-2025 06:07 | 429497 | ||
| PXSC1_TS_DEWT_052014.nc | 11-Dec-2024 12:07 | 429389 | ||
| PXSC1_TS_DEWT_052015.nc | 11-Dec-2024 12:12 | 429496 | ||
| PXSC1_TS_DEWT_052016.nc | 11-Dec-2024 12:16 | 429495 | ||
| PXSC1_TS_DEWT_052017.nc | 11-Dec-2024 12:22 | 429492 | ||
| PXSC1_TS_DEWT_052018.nc | 11-Dec-2024 12:26 | 429495 | ||
| PXSC1_TS_DEWT_052019.nc | 11-Dec-2024 12:32 | 429419 | ||
| PXSC1_TS_DEWT_052020.nc | 11-Dec-2024 12:38 | 429494 | ||
| PXSC1_TS_DEWT_052021.nc | 11-Dec-2024 12:45 | 429495 | ||
| PXSC1_TS_DEWT_052022.nc | 11-Dec-2024 12:51 | 429492 | ||
| PXSC1_TS_DEWT_052025.nc | 01-Jun-2025 09:33 | 429495 | ||
| PXSC1_TS_DEWT_062014.nc | 11-Dec-2024 12:08 | 429495 | ||
| PXSC1_TS_DEWT_062015.nc | 11-Dec-2024 12:12 | 429493 | ||
| PXSC1_TS_DEWT_062016.nc | 11-Dec-2024 12:17 | 429498 | ||
| PXSC1_TS_DEWT_062017.nc | 11-Dec-2024 12:22 | 429493 | ||
| PXSC1_TS_DEWT_062018.nc | 11-Dec-2024 12:27 | 429496 | ||
| PXSC1_TS_DEWT_062019.nc | 11-Dec-2024 12:32 | 429495 | ||
| PXSC1_TS_DEWT_062020.nc | 11-Dec-2024 12:39 | 429491 | ||
| PXSC1_TS_DEWT_062021.nc | 11-Dec-2024 12:46 | 429498 | ||
| PXSC1_TS_DEWT_062022.nc | 11-Dec-2024 12:51 | 429604 | ||
| PXSC1_TS_DEWT_062025.nc | 01-Jul-2025 07:12 | 429609 | ||
| PXSC1_TS_DEWT_072014.nc | 11-Dec-2024 12:08 | 429607 | ||
| PXSC1_TS_DEWT_072015.nc | 11-Dec-2024 12:13 | 429617 | ||
| PXSC1_TS_DEWT_072016.nc | 11-Dec-2024 12:17 | 428442 | ||
| PXSC1_TS_DEWT_072017.nc | 11-Dec-2024 12:22 | 429625 | ||
| PXSC1_TS_DEWT_072018.nc | 11-Dec-2024 12:27 | 429612 | ||
| PXSC1_TS_DEWT_072019.nc | 11-Dec-2024 12:33 | 429613 | ||
| PXSC1_TS_DEWT_072020.nc | 11-Dec-2024 12:39 | 429618 | ||
| PXSC1_TS_DEWT_072021.nc | 11-Dec-2024 12:46 | 429610 | ||
| PXSC1_TS_DEWT_072022.nc | 11-Dec-2024 12:52 | 429621 | ||
| PXSC1_TS_DEWT_072025.nc | 01-Aug-2025 07:36 | 429611 | ||
| PXSC1_TS_DEWT_082014.nc | 11-Dec-2024 12:08 | 429612 | ||
| PXSC1_TS_DEWT_082015.nc | 11-Dec-2024 12:13 | 429616 | ||
| PXSC1_TS_DEWT_082016.nc | 11-Dec-2024 12:17 | 429622 | ||
| PXSC1_TS_DEWT_082017.nc | 11-Dec-2024 12:23 | 429612 | ||
| PXSC1_TS_DEWT_082018.nc | 11-Dec-2024 12:28 | 429623 | ||
| PXSC1_TS_DEWT_082019.nc | 11-Dec-2024 12:33 | 429625 | ||
| PXSC1_TS_DEWT_082020.nc | 11-Dec-2024 12:40 | 429616 | ||
| PXSC1_TS_DEWT_082021.nc | 11-Dec-2024 12:47 | 429833 | ||
| PXSC1_TS_DEWT_082022.nc | 11-Dec-2024 12:52 | 429826 | ||
| PXSC1_TS_DEWT_082025.nc | 01-Sep-2025 08:49 | 429832 | ||
| PXSC1_TS_DEWT_092014.nc | 11-Dec-2024 12:09 | 429837 | ||
| PXSC1_TS_DEWT_092015.nc | 11-Dec-2024 12:13 | 429840 | ||
| PXSC1_TS_DEWT_092016.nc | 11-Dec-2024 12:18 | 429833 | ||
| PXSC1_TS_DEWT_092017.nc | 11-Dec-2024 12:23 | 429837 | ||
| PXSC1_TS_DEWT_092018.nc | 11-Dec-2024 12:28 | 422116 | ||
| PXSC1_TS_DEWT_092019.nc | 11-Dec-2024 12:34 | 429831 | ||
| PXSC1_TS_DEWT_092020.nc | 11-Dec-2024 12:41 | 429838 | ||
| PXSC1_TS_DEWT_092021.nc | 11-Dec-2024 12:48 | 429838 | ||
| PXSC1_TS_DEWT_092022.nc | 11-Dec-2024 12:52 | 429834 | ||
| PXSC1_TS_DEWT_092025.nc | 01-Oct-2025 09:16 | 429841 | ||
| PXSC1_TS_DEWT_102014.nc | 11-Dec-2024 12:09 | 429833 | ||
| PXSC1_TS_DEWT_102015.nc | 11-Dec-2024 12:14 | 429836 | ||
| PXSC1_TS_DEWT_102016.nc | 11-Dec-2024 12:18 | 429834 | ||
| PXSC1_TS_DEWT_102017.nc | 11-Dec-2024 12:24 | 429820 | ||
| PXSC1_TS_DEWT_102018.nc | 11-Dec-2024 12:28 | 429817 | ||
| PXSC1_TS_DEWT_102019.nc | 11-Dec-2024 12:34 | 429839 | ||
| PXSC1_TS_DEWT_102021.nc | 11-Dec-2024 12:48 | 429841 | ||
| PXSC1_TS_DEWT_102022.nc | 11-Dec-2024 12:53 | 429278 | ||
| PXSC1_TS_DEWT_102024.nc | 17-Jan-2025 09:32 | 428037 | ||
| PXSC1_TS_DEWT_102025.nc | 01-Nov-2025 08:43 | 429275 | ||
| PXSC1_TS_DEWT_112014.nc | 11-Dec-2024 12:10 | 429293 | ||
| PXSC1_TS_DEWT_112015.nc | 11-Dec-2024 12:14 | 429287 | ||
| PXSC1_TS_DEWT_112016.nc | 11-Dec-2024 12:19 | 429287 | ||
| PXSC1_TS_DEWT_112017.nc | 11-Dec-2024 12:24 | 429294 | ||
| PXSC1_TS_DEWT_112018.nc | 11-Dec-2024 12:29 | 429292 | ||
| PXSC1_TS_DEWT_112019.nc | 11-Dec-2024 12:35 | 429289 | ||
| PXSC1_TS_DEWT_112021.nc | 11-Dec-2024 12:49 | 429289 | ||
| PXSC1_TS_DEWT_112022.nc | 11-Dec-2024 12:53 | 429264 | ||
| PXSC1_TS_DEWT_112024.nc | 17-Jan-2025 19:50 | 429295 | ||
| PXSC1_TS_DEWT_112025.nc | 02-Dec-2025 12:25 | 429288 | ||
| PXSC1_TS_DEWT_122014.nc | 11-Dec-2024 12:10 | 429283 | ||
| PXSC1_TS_DEWT_122015.nc | 11-Dec-2024 12:14 | 429288 | ||
| PXSC1_TS_DEWT_122016.nc | 11-Dec-2024 12:19 | 429292 | ||
| PXSC1_TS_DEWT_122017.nc | 11-Dec-2024 12:24 | 429289 | ||
| PXSC1_TS_DEWT_122018.nc | 11-Dec-2024 12:29 | 429290 | ||
| PXSC1_TS_DEWT_122019.nc | 11-Dec-2024 12:35 | 429295 | ||
| PXSC1_TS_DEWT_122020.nc | 11-Dec-2024 12:42 | 429497 | ||
| PXSC1_TS_DEWT_122021.nc | 11-Dec-2024 12:49 | 429494 | ||
| PXSC1_TS_DEWT_122024.nc | 22-Jan-2025 19:49 | 429491 | ||
| PXSC1_TS_DEWT_122025.nc | 01-Jan-2026 04:47 | 429495 | ||